Other Surface Observations
Issued by NWS

Home | Current Version | Previous Version | Text Only | Print | Product List | Glossary On
Versions: 1 2 3 4 5 6 7 8 9 10 11 12 13 14 15 16 17 18 19 20 21 22 23 24 25 26 27 28 29 30 31 32 33 34 35 36 37 38 39 40 41 42 43 44 45 46 47 48 49 50
000
SXUS52 KTAE 191518
OSOTAE
OSOTAE
North Florida/South Alabama/Southwest Georgia Weather Roundup
National Weather Service Tallahassee Florida
1000 AM EST FRI DEC 19 2014

Note: "fair" indicates few or no clouds below 12,000 feet with no
significant weather and/or obstructions to visibility.

!FLZ017-115-028-034-025-191600
...North Florida...

CITY           SKY/WX    TMP DP  RH WIND       PRES   REMARKS
TALLAHASSEE    PTSUNNY   56  38  50 E7        30.15F
APALACHICOLA   PTSUNNY   57  40  52 E6        30.16R
PERRY          PTSUNNY   54  40  61 E3        30.17S
CROSS CITY       N/A     55  45  68 CALM      30.16R
JACKSONVILLE   PTSUNNY   55  44  66 N5        30.16R
$$

!FLZ112-006-005-002-011-191600
...Florida Panhandle...

CITY           SKY/WX    TMP DP  RH WIND       PRES   REMARKS
MARIANNA       CLOUDY    52  39  61 NE6       30.18R
BONIFAY        FAIR      53  37  54 N6        30.20R
PANAMA CITY NW CLOUDY    54  39  57 N3        30.17R
TYNDALL AFB    PTSUNNY   53  41  63 VRB2      30.18R
TYND DRONE APT CLOUDY    53  42  65 E3        30.16
DE FUNIAK SPR  CLOUDY    50  39  65 N5        30.18S
EGLIN AFB      PTSUNNY   53  39  57 NE9       30.16F
DESTIN         CLOUDY    54  42  64 NE7       30.16S
HURLBURT       CLOUDY    53  38  57 E8        30.14F
CRESTVIEW      LGT RAIN  49  41  74 NE7       30.17F
PENSACOLA      LGT RAIN  49  43  80 E6        30.15S
$$

!ALZ063-066-191600
...South Alabama...

CITY           SKY/WX    TMP DP  RH WIND       PRES   REMARKS
DOTHAN         PTSUNNY   50  35  56 NE6       30.22R
OZARK CAIRNS   PTSUNNY   49  34  56 N6        30.20R
FT RUCKER HELI MOSUNNY   52  35  52 N5        30.19R
RUCKER HELI 3  FAIR      50  36  58 VRB2      30.23R
RUCKER HELI 2  FAIR      50  36  58 VRB3      30.20R
FLORALA APT    PTSUNNY   50  38  63 NE6       30.21S
ANDALUSIA      MOSUNNY   55  35  47 E3        30.20R
TROY           PTSUNNY   49  33  54 NE3       30.22R
EUFALA         FAIR      49  37  63 CALM      30.18R
MOBILE         HVY RAIN  45  45 100 NE7       30.24R FOG     WCI  41
$$

!GAZ120>161-191600
...Southwest and South Central Georgia...

CITY           SKY/WX    TMP DP  RH WIND       PRES   REMARKS
THOMASVILLE    FAIR      54  39  58 NE5       30.17R
BAINBRIDGE     CLOUDY    54  41  62 E5        30.18R
MOODY AFB      CLOUDY    54  37  53 E2        30.16R
VALDOSTA       PTSUNNY   58  39  49 NE6       30.16S
MOULTRIE       CLOUDY    52  39  62 CALM      30.17R
BLAKELY        CLOUDY    52  37  58 N5        30.20R
ALBANY         CLOUDY    48  37  65 NE3       30.20R
TIFTON         FAIR      49  35  60 CALM      30.17R
FITZGERALD     FAIR      50  34  54 N6        30.19S
CORDELE        FAIR      46  38  75 N3        30.19S
AMERICUS       FAIR      45  36  70 N6        30.19S WCI  41
HOMERVILLE     FAIR      55  43  62 CALM      30.17S
$$

!GMZ750-755-770-775-191600
...Coastal and Buoy Obs...

STATION/POSITION TIME  TEMP    WIND        PRES    VSBY  WAVE
                       AIR SEA DIR/SP/G                  HT/PER
                 (UTC) (F)     (DEG/KT/KT) (MB)    (MI)  (FT/S)
KEATON BEACH     1500   54      70/  8/ 10 1021.4R
CEDAR KEY        1500   54      40/  3/  4 1022.1R
C TOWER          1500   60      70/ 15/ 16 1020.8R
APALACHICOLA BUO 1500   65 71   80/ 10/ 12 1020.5R         1/ 3
PANAMA CITY BUOY 1411   66 76   90/ 12/ 16 1020.4R         2/ 3
MOBILE BUOY      1500   69 75   70/ 17/ 21 1019.7R         3/ 5
ORANGE BCH AL BU 1500   59 67   50/ 14/ 16 1020.5R         3/ 4
$$



USA.gov is the U.S. government's official web portal to all federal, state and local government web resources and services.